QB50P2

Last updated on Tue Sep 16 2025 00:03:48 GMT+0000 (Coordinated Universal Time)

1 40032U 14033Y 25258.45635056 .00010791 00000+0 67377-3 0 9996 2 40032 98.0542 234.6627 0009746 42.6793 317.5190 15.09643373611135
UTC large
Height (km)
Speed (km/s)
/
Latitude / Longitude
Inclination (degrees)
Orbital Period (minutes)
Azimuth
Elevation
Range (km)
Doppler Factor

Next 0 passes for location: London (51.5072 / 0.1276)

Sorry there are no passes over London.